Wilmington, OH

1:06 PM EDT on July 28, 2017 (GMT -0400)
Airborne

Weather History for KILN - November, 2012

Change the Weather History Date:

Friday, November 16, 2012

  Actual Average (KFFO) Record (KFFO)
Temperature  
Mean Temperature 37 °F -  
Max Temperature 48 °F 49 °F 68 °F (2001)
Min Temperature 26 °F 32 °F 23 °F (1997)
Degree Days  
Heating Degree Days 28    
Moisture  
Dew Point 30 °F    
Average Humidity 81    
Maximum Humidity 93    
Minimum Humidity 56    
Precipitation  
Precipitation 0.00 in - - ()
Sea Level Pressure  
Sea Level Pressure 30.47 in    
Wind  
Wind Speed 6 mph (NNE)    
Max Wind Speed 9 mph    
Max Gust Speed -    
Visibility 6 miles    
Events      
Averages and records for this station are not official NWS values.
T = Trace of Precipitation, MM = Missing Value Source: NWS Daily Summary

Daily Weather History Graph

Daily Weather History Graph

Search for Another Location

Airport or City:

Trip Planner

Search our weather history database for the weather conditions in past years. The results will help you decide how hot, cold, wet, or windy it might be!

Date:

Astronomy

Nov. 16, 2012 Rise Set
Actual Time 7:20 AM EST 5:18 PM EST
Civil Twilight 6:51 AM EST 5:47 PM EST
Nautical Twilight 6:19 AM EST 6:20 PM EST
Astronomical Twilight 5:47 AM EST 6:52 PM EST
Moon 10:14 AM EST (11/16) 8:17 PM EST (11/16)
Length of Visible Light 10h 56m
Length of Day
9h 58m
Waxing Crescent, 11% of the Moon is Illuminated
Nov 16
Waxing Crescent
Nov 20
First Quarter
Nov 28
Full
Dec 6
Last Quarter
Dec 13
New

Hourly Weather History & Observations

Time (EST) Temp. Windchill Dew Point Humidity Pressure Visibility Wind Dir Wind Speed Gust Speed Precip Events Conditions
12:54 AM 30.9 °F 27.5 °F 28.0 °F 89% 30.41 in 6.0 mi NNE 3.5 mph - N/A   Clear
1:54 AM 30.0 °F 25.2 °F 26.1 °F 85% 30.41 in 6.0 mi North 4.6 mph - N/A   Clear
2:54 AM 28.0 °F 24.2 °F 26.1 °F 92% 30.42 in 5.0 mi NNE 3.5 mph - N/A   Clear
3:54 AM 26.1 °F 20.5 °F 24.1 °F 92% 30.42 in 5.0 mi North 4.6 mph - N/A   Clear
4:54 AM 28.9 °F 22.8 °F 27.0 °F 92% 30.43 in 5.0 mi NNE 5.8 mph - N/A   Clear
5:54 AM 28.0 °F 21.7 °F 25.0 °F 88% 30.45 in 4.0 mi North 5.8 mph - N/A   Clear
6:54 AM 27.0 °F 23.0 °F 25.0 °F 92% 30.46 in 4.0 mi NNE 3.5 mph - N/A   Clear
7:33 AM 26.6 °F 21.2 °F 24.8 °F 93% 30.39 in 2.5 mi NE 4.6 mph - N/A   Clear
7:54 AM 28.0 °F 20.8 °F 25.0 °F 88% 30.47 in 2.5 mi NE 6.9 mph - N/A   Clear
8:54 AM 33.1 °F 28.7 °F 30.9 °F 92% 30.48 in 2.0 mi ENE 4.6 mph - N/A   Clear
9:33 AM 35.6 °F 30.7 °F 33.8 °F 93% 30.41 in 3.0 mi ENE 5.8 mph - N/A   Clear
9:54 AM 37.9 °F 32.1 °F 34.0 °F 86% 30.49 in 4.0 mi NE 8.1 mph - N/A   Clear
10:54 AM 42.1 °F 37.1 °F 36.0 °F 79% 30.50 in 8.0 mi NE 8.1 mph - N/A   Clear
11:54 AM 44.1 °F 39.0 °F 35.1 °F 71% 30.49 in 10.0 mi NE 9.2 mph - N/A   Partly Cloudy
12:54 PM 46.0 °F 41.4 °F 35.1 °F 66% 30.48 in 10.0 mi NE 9.2 mph - N/A   Clear
1:54 PM 48.0 °F - 34.0 °F 58% 30.47 in 10.0 mi NNE 8.1 mph - N/A   Clear
2:54 PM 48.9 °F - 34.0 °F 56% 30.46 in 10.0 mi NNE 9.2 mph - N/A   Clear
3:54 PM 48.0 °F - 34.0 °F 58% 30.48 in 10.0 mi NE 6.9 mph - N/A   Clear
4:54 PM 45.0 °F 41.2 °F 35.1 °F 68% 30.49 in 9.0 mi North 6.9 mph - N/A   Clear
5:54 PM 39.0 °F 34.8 °F 32.0 °F 76% 30.50 in 10.0 mi NNE 5.8 mph - N/A   Clear
6:54 PM 36.0 °F 31.1 °F 30.0 °F 79% 30.53 in 9.0 mi NNE 5.8 mph - N/A   Clear
7:54 PM 36.0 °F 30.3 °F 30.0 °F 79% 30.53 in 8.0 mi NE 6.9 mph - N/A   Clear
8:54 PM 35.1 °F 27.9 °F 28.9 °F 78% 30.53 in 8.0 mi NNE 9.2 mph - N/A   Clear
9:54 PM 35.1 °F 27.9 °F 30.0 °F 82% 30.53 in 7.0 mi NNE 9.2 mph - N/A   Clear
10:54 PM 34.0 °F 26.6 °F 28.9 °F 82% 30.53 in 6.0 mi NE 9.2 mph - N/A   Haze
11:54 PM 33.1 °F 26.9 °F 28.9 °F 85% 30.53 in 6.0 mi NE 6.9 mph - N/A   Clear